This is the latest recevied weather packets stored in our database for station/object KD0SBN. If no packets are shown the sender has not sent any weather packets the latest 10 day(s).
| Time | Temp. | Humidity | Pressure | Rain* | Wind** | Luminosity | Snow |
|---|---|---|---|---|---|---|---|
| 1778157267 | 6.11° C | 54% | 1017.2 hPa | 0 mm | - | - | - |
| 1778156964 | 6.11° C | 53% | 1017.3 hPa | 0 mm | - | - | - |
| 1778156659 | 6.11° C | 54% | 1017.2 hPa | 0 mm | - | - | - |
| 1778156355 | 6.11° C | 55% | 1017.1 hPa | 0 mm | - | - | - |
| 1778156050 | 6.11° C | 55% | 1017.2 hPa | 0 mm | - | - | - |
| 1778155748 | 6.11° C | 55% | 1017.3 hPa | 0 mm | - | - | - |
| 1778155444 | 6.11° C | 55% | 1017.1 hPa | 0 mm | - | - | - |
| 1778155140 | 5.56° C | 56% | 1017.1 hPa | 0 mm | - | - | - |
| 1778154836 | 5.56° C | 57% | 1017.2 hPa | 0 mm | - | - | - |
| 1778154532 | 5.56° C | 57% | 1017.2 hPa | 0 mm | - | - | - |
| 1778154229 | 5.56° C | 58% | 1017.2 hPa | 0 mm | - | - | - |
| 1778153926 | 5.56° C | 60% | 1017.2 hPa | 0 mm | - | - | - |
| 1778153623 | 5° C | 61% | 1017.6 hPa | 0 mm | - | - | - |
| 1778153321 | 5° C | 62% | 1017.3 hPa | 0 mm | - | - | - |
| 1778153018 | 5° C | 61% | 1017.3 hPa | 0 mm | - | - | - |
| 1778152716 | 5.56° C | 61% | 1017.5 hPa | 0 mm | - | - | - |
| 1778152412 | 5.56° C | 61% | 1017.5 hPa | 0 mm | - | - | - |
| 1778152108 | 5.56° C | 61% | 1017.5 hPa | 0 mm | - | - | - |
| 1778151804 | 4.44° C | 64% | 1017.8 hPa | 0 mm | - | - | - |
| 1778151502 | 4.44° C | 66% | 1017.6 hPa | 0 mm | - | - | - |
| 1778151198 | 5° C | 64% | 1017.7 hPa | 0 mm | - | - | - |
| 1778150895 | 4.44° C | 65% | 1017.7 hPa | 0 mm | - | - | - |
| 1778150591 | 4.44° C | 65% | 1017.8 hPa | 0 mm | - | - | - |
| 1778150288 | 4.44° C | 67% | 1018.2 hPa | 0 mm | - | - | - |
| 1778149984 | 5° C | 62% | 1017.9 hPa | 0 mm | - | - | - |
* Rain latest hour (hover to see other rain measurements)
** Current wind speed in m/s (hover to see current wind gust speed)